Location: Cahas Mountain Overlook
(37.0833°N, 80.1000°W)
Time: 02:49:21
(UTC-05:00)

Vanguard 2 Rocket - All Passes

Search period start: 15 February 2026 00:00
Search period end: 25 February 2026 00:00
Orbit: 553 x 3286 km, 32.9° (Epoch: 13 February)

Date Brightness Start Highest point End Pass type
(mag) Time Alt. Az. Time Alt. Az. Time Alt. Az.
15 Feb - 09:21:55 10° SSE 09:30:15 14° SE 09:38:06 10° ESE daylight
15 Feb - 11:28:59 10° SSW 11:46:02 38° SSE 11:58:53 10° E daylight
15 Feb - 13:44:18 10° WSW 14:02:02 62° SSE 14:12:49 10° E daylight
15 Feb - 16:02:41 10° W 16:17:06 71° S 16:25:01 10° ESE daylight
15 Feb - 18:20:55 10° W 18:30:19 43° SSW 18:35:56 10° SE visible
16 Feb - 10:23:33 10° SSW 10:39:06 29° SE 10:52:13 10° E daylight
16 Feb - 12:36:43 10° SW 12:55:15 55° SSE 13:07:42 10° E daylight
16 Feb - 14:54:23 10° WSW 15:11:04 72° S 15:20:33 10° E daylight
16 Feb - 17:13:07 10° W 17:25:19 59° SSW 17:32:07 10° ESE daylight
16 Feb - 19:31:33 10° W 19:37:12 20° SW 19:41:18 10° S visible
17 Feb - 09:19:39 10° S 09:32:17 21° SE 09:44:02 10° E daylight
17 Feb - 11:29:52 10° SW 11:48:13 47° SSE 12:02:05 10° E daylight
17 Feb - 13:46:09 10° WSW 14:04:31 69° S 14:15:47 10° E daylight
17 Feb - 16:04:57 10° W 16:19:46 70° S 16:27:58 10° ESE daylight
17 Feb - 18:23:31 10° W 18:32:46 35° SSW 18:38:29 10° SSE visible
18 Feb - 08:19:07 10° SSE 08:25:40 12° SE 08:32:10 10° ESE daylight
18 Feb - 10:23:56 10° SSW 10:41:07 37° SSE 10:55:43 10° E daylight
18 Feb - 12:38:19 10° WSW 12:57:35 63° SSE 13:10:39 10° E daylight
18 Feb - 14:56:32 10° W 15:13:40 74° S 15:23:30 10° E daylight
18 Feb - 17:15:29 10° W 17:27:52 52° SSW 17:34:54 10° SE daylight
18 Feb - 19:35:12 10° WSW 19:39:22 14° SW 19:42:42 10° SSW visible
19 Feb - 09:19:11 10° S 09:34:08 28° SE 09:48:16 10° E daylight
19 Feb - 11:31:09 10° SW 11:50:21 55° SSE 12:05:02 10° E daylight
19 Feb - 13:48:10 10° WSW 14:07:01 74° S 14:18:42 10° E daylight
19 Feb - 16:07:12 10° W 16:22:21 65° SSW 16:30:51 10° ESE daylight
19 Feb - 18:26:15 10° W 18:35:02 28° SW 18:40:44 10° SSE visible
20 Feb - 08:16:12 10° S 08:27:28 19° SE 08:38:55 10° E daylight
20 Feb - 10:24:52 10° SW 10:43:04 46° SSE 10:58:49 10° E daylight
20 Feb - 12:40:09 10° WSW 12:59:55 70° SSE 13:13:30 10° E daylight
20 Feb - 14:58:44 10° W 15:16:13 73° S 15:26:23 10° ESE daylight
20 Feb - 17:17:52 10° W 17:30:14 44° SSW 17:37:29 10° SE daylight
21 Feb - 09:19:36 10° SSW 09:35:55 36° SE 09:51:44 10° E daylight
21 Feb - 11:32:47 10° SW 11:52:30 63° SSE 12:07:52 10° E daylight
21 Feb - 13:50:17 10° W 14:09:29 76° S 14:21:33 10° E daylight
21 Feb - 16:09:27 10° W 16:24:48 59° SSW 16:33:35 10° SE daylight
21 Feb - 18:29:16 10° W 18:37:08 22° SW 18:42:36 10° S visible
22 Feb - 08:15:38 10° S 08:29:09 26° SE 08:43:21 10° E daylight
22 Feb - 10:26:14 10° SW 10:45:00 54° SSE 11:01:41 10° E daylight
22 Feb - 12:42:11 10° WSW 13:02:15 74° S 13:16:19 10° E daylight
22 Feb - 15:00:56 10° W 15:18:42 70° SSW 15:29:13 10° ESE daylight
22 Feb - 17:20:22 10° W 17:32:25 36° SW 17:39:50 10° SSE daylight
23 Feb - 07:13:51 10° SSE 07:22:49 16° SE 07:32:30 10° E daylight
23 Feb - 09:20:37 10° SSW 09:37:41 44° SE 09:54:46 10° E daylight
23 Feb - 11:34:41 10° WSW 11:54:40 69° SSE 12:10:37 10° E daylight
23 Feb - 13:52:29 10° W 14:11:55 76° S 14:24:23 10° ESE daylight
23 Feb - 16:11:43 10° W 16:27:06 52° SSW 16:36:11 10° SE daylight
23 Feb - 18:32:50 10° W 18:39:02 16° SW 18:43:48 10° SSW visible
24 Feb - 08:16:04 10° SSW 08:30:45 33° SE 08:46:52 10° E daylight
24 Feb - 10:27:56 10° SW 10:46:58 61° SSE 11:04:23 10° E daylight
24 Feb - 12:44:21 10° WSW 13:04:35 77° S 13:19:05 10° E daylight
24 Feb - 15:03:09 10° W 15:21:03 65° SSW 15:31:55 10° ESE daylight
24 Feb - 17:23:02 10° W 17:34:26 29° SW 17:41:51 10° SSE daylight
